カタログに戻る

DMSP 5D-3 F17 DEB

運用中SSO
NORAD 29524·DEBRIS·🇺🇸 United States

打ち上げ Nov 4, 2006 から Vandenberg Space Force Base

Loading…

次のパス (今後24時間)

TLE

最新Source: Space-Track

元期: Sep 14, 2026, 20:02 UTC

1 29524U 06050C   26257.83507469  .00001306  00000-0  51528-3 0  9991
2 29524  98.5501 276.5680 0004492 230.0939 304.9333 14.30754149 28745

AllMySatでDMSP 5D-3 F17 DEBをリアルタイム追跡

Download on the App Store